Regional Weather Roundup
Issued by NWS Green Bay, WI

Home | Current Version | Previous Version | Text Only | Print | Product List | Glossary On
Versions: 1 2 3 4 5 6 7 8 9 10 11 12 13 14 15 16 17 18 19 20 21 22 23 24 25 26 27 28 29 30 31 32 33 34 35 36 37 38 39 40 41 42 43 44 45 46 47 48 49 50
000
ASUS43 KGRB 180610
RWRGRB

NORTH-CENTRAL AND NORTHEAST WISCONSIN REGIONAL WEATHER ROUNDUP
NATIONAL WEATHER SERVICE GREEN BAY WI
100 AM CDT FRI APR 18 2014

WIZ005-009-010>012-018-019-180700-
NORTH CENTRAL WISCONSIN

CITY           SKY/WX    TMP DP  RH WIND       PRES   REMARKS
IRONWOOD         N/A     30  21  69 NW5       30.26S
MANITOWISH WTR CLOUDY    30  23  75 NW9       30.27S
ARBOR VITAE    CLOUDY    32  26  80 NW6       30.27S
EAGLE RIVER    CLOUDY    31  23  72 NW5       30.26S
LAND O LAKES   CLOUDY    31  24  77 NW6       30.27R
RHINELANDER    CLOUDY    31  24  75 NW6       30.27S
PHILLIPS         N/A     26  23  87 CALM      30.28S
ANTIGO         CLOUDY    32  26  78 N9        30.27S
TOMAHAWK       CLOUDY    32  26  78 CALM      30.28S
MERRILL        CLOUDY    33  26  77 CALM      30.29R
$$

WIZ013-073-180700-
NORTHEAST WISCONSIN

CITY           SKY/WX    TMP DP  RH WIND       PRES   REMARKS
IRON MOUNTAIN  CLOUDY    33  26  75 NW8       30.25S
MARINETTE      CLOUDY    36  28  75 NW3       30.28R
OCONTO         CLOUDY    36  31  81 NW5       30.29R
$$

WIZ017-030-035>037-045-180700-
CENTRAL WISCONSIN

CITY           SKY/WX    TMP DP  RH WIND       PRES   REMARKS
MEDFORD        CLOUDY    31  25  76 CALM      30.29S
WAUSAU         CLOUDY    34  25  69 NW5       30.28R
MOSINEE        CLOUDY    32  28  86 NW7       30.30R
MARSHFIELD     CLOUDY    34  26  72 N6        30.29S
WISC RAPIDS    CLOUDY    35  27  72 NW3       30.31S
STEVENS POINT  CLOUDY    33  26  77 NW3       30.30R
WAUPACA        CLOUDY    39  28  65 NW7       30.30R
SHAWANO        CLOUDY    38  30  72 CALM      30.29S
CLINTONVILLE   CLOUDY    36  28  75 N5        30.29S
$$

WIZ038-039-048-051-180700-
FOX VALLEY

CITY           SKY/WX    TMP DP  RH WIND       PRES   REMARKS
NWS GREEN BAY  CLOUDY    37  33  85 NW3       30.29R
APPLETON         N/A     32  28  86 NW6       30.29S
OSHKOSH          N/A     35  29  78 NW5       30.28S
FOND DU LAC      N/A     34  29  82 NW5       30.28S
$$

WIZ022-050-052-180700-
EAST CENTRAL WISCONSIN

CITY           SKY/WX    TMP DP  RH WIND       PRES   REMARKS
STURGEON BAY   CLOUDY    37  30  75 NW8       30.29R
MANITOWOC      CLOUDY    40  35  83 NW9       30.29R
SHEBOYGAN        N/A     37  33  85 NW7       30.28R
$$

LMZ563-521-522-541>543-180700-
LAKESHORE

STATION/POSITION TIME  TEMP    WIND        PRES    VSBY  WAVE
                       AIR SEA DIR/SP/G                  HT/PER
                 (UTC) (F)     (DEG/KT/KT) (MB)    (MI)  (FT/S)
SHEBOYGAN LKSHOR 0600   40     350/  8/  9 1026.1R
KEWAUNEE LKSHORE 0600   40     300/  5/  6 1025.8R
NORTHPORT PIER   0600   36     300/  7/ 10 1025.1S
SISTER BAY LKSHO 0600   34        CALM       N/A
MENOMINEE LKSHOR 0600   37     290/  6/ 11 1025.9R
$$



USA.gov is the U.S. government's official web portal to all federal, state and local government web resources and services.